PUA2603 MMMX-MMSD

Flight info

Callsign PUA2603
Flight time 1h 41m
Altitude 38000
Route SEBON3B SEBON UT124 GDL UJ3 RADAP UT153 DEDKU UT14 TENAY TENAY1B
Aircraft A20N/M-SDE2E3FGHIRWXY/LB1

Departure

Time 2026-04-22 04:26
Airport Mexico City Benito Juárez International Airport (MMMX)

Arrival

Time 2026-04-22 06:07
Airport Los Cabos International Airport (MMSD)
Time Latitude Longitude Altitude Speed Heading
2026-04-22 04:01 19.43695 -99.07788 7345 ft 0 kts 36°
2026-04-22 04:15 19.43691 -99.07791 7347 ft 2 kts 29°
2026-04-22 04:15 19.43677 -99.07798 7349 ft 2 kts 30°
2026-04-22 04:16 19.43664 -99.07806 7351 ft 1 kts 36°
2026-04-22 04:16 19.43657 -99.07831 7352 ft 1 kts 116°
2026-04-22 04:16 19.43662 -99.07838 7351 ft 0 kts 144°
2026-04-22 04:17 19.43670 -99.07842 7349 ft 0 kts 153°
2026-04-22 04:17 19.43673 -99.07845 7347 ft 0 kts 148°
2026-04-22 04:18 19.43672 -99.07844 7347 ft 0 kts 148°
2026-04-22 04:19 19.43666 -99.07840 7347 ft 1 kts 148°
2026-04-22 04:19 19.43656 -99.07833 7347 ft 2 kts 148°
2026-04-22 04:19 19.43638 -99.07822 7347 ft 3 kts 149°
2026-04-22 04:19 19.43613 -99.07803 7347 ft 5 kts 137°
2026-04-22 04:20 19.43614 -99.07763 7345 ft 7 kts 60°
2026-04-22 04:20 19.43643 -99.07711 7344 ft 10 kts 58°
2026-04-22 04:20 19.43685 -99.07640 7343 ft 12 kts 58°
2026-04-22 04:20 19.43734 -99.07552 7340 ft 14 kts 60°
2026-04-22 04:21 19.43785 -99.07459 7340 ft 14 kts 59°
2026-04-22 04:21 19.43834 -99.07371 7342 ft 12 kts 59°
2026-04-22 04:21 19.43879 -99.07291 7343 ft 12 kts 59°
2026-04-22 04:21 19.43925 -99.07210 7344 ft 12 kts 59°
2026-04-22 04:22 19.43967 -99.07136 7345 ft 11 kts 59°
2026-04-22 04:22 19.44008 -99.07066 7346 ft 11 kts 59°
2026-04-22 04:22 19.44048 -99.06994 7346 ft 11 kts 59°
2026-04-22 04:22 19.44090 -99.06920 7346 ft 12 kts 59°
2026-04-22 04:23 19.44135 -99.06838 7345 ft 13 kts 59°
2026-04-22 04:23 19.44185 -99.06748 7342 ft 15 kts 59°
2026-04-22 04:23 19.44246 -99.06640 7339 ft 17 kts 59°
2026-04-22 04:23 19.44312 -99.06522 7336 ft 18 kts 59°
2026-04-22 04:24 19.44377 -99.06409 7335 ft 15 kts 59°
2026-04-22 04:24 19.44403 -99.06330 7334 ft 8 kts 111°
2026-04-22 04:24 19.44350 -99.06284 7333 ft 11 kts 159°
2026-04-22 04:24 19.44304 -99.06304 7332 ft 4 kts 240°
2026-04-22 04:25 19.44259 -99.06386 7334 ft 32 kts 239°
2026-04-22 04:25 19.44015 -99.06817 7343 ft 100 kts 240°
2026-04-22 04:25 19.43559 -99.07633 7344 ft 156 kts 240°
2026-04-22 04:25 19.42969 -99.08690 7642 ft 174 kts 240°
2026-04-22 04:26 19.42346 -99.09804 8217 ft 179 kts 240°
2026-04-22 04:26 19.41703 -99.10941 8861 ft 181 kts 240°
2026-04-22 04:26 19.41098 -99.12014 9369 ft 189 kts 240°
2026-04-22 04:26 19.40393 -99.13268 9797 ft 206 kts 240°
2026-04-22 04:27 19.39633 -99.14625 10213 ft 223 kts 240°
2026-04-22 04:27 19.38797 -99.16114 10552 ft 245 kts 240°
2026-04-22 04:27 19.37899 -99.17713 11003 ft 262 kts 240°
2026-04-22 04:27 19.37141 -99.19492 11615 ft 268 kts 262°
2026-04-22 04:28 19.37256 -99.21452 12334 ft 268 kts 292°
2026-04-22 04:28 19.38229 -99.23085 13052 ft 266 kts 319°
2026-04-22 04:28 19.39661 -99.24293 13781 ft 266 kts 325°
2026-04-22 04:28 19.41163 -99.25487 14500 ft 269 kts 324°
2026-04-22 04:29 19.42650 -99.26689 15164 ft 273 kts 323°
2026-04-22 04:29 19.44157 -99.27932 15819 ft 276 kts 323°
2026-04-22 04:29 19.45677 -99.29199 16485 ft 279 kts 323°
2026-04-22 04:29 19.47047 -99.30669 17101 ft 286 kts 303°
2026-04-22 04:30 19.47723 -99.32656 17717 ft 292 kts 277°
2026-04-22 04:30 19.47546 -99.34839 18109 ft 309 kts 254°
2026-04-22 04:30 19.46749 -99.37032 18423 ft 326 kts 249°
2026-04-22 04:30 19.45872 -99.39294 18803 ft 338 kts 249°
2026-04-22 04:31 19.44990 -99.41631 19407 ft 342 kts 250°
2026-04-22 04:31 19.44129 -99.43967 20046 ft 344 kts 251°
2026-04-22 04:31 19.43271 -99.46326 20670 ft 346 kts 251°
2026-04-22 04:31 19.42410 -99.48706 21293 ft 349 kts 251°
2026-04-22 04:32 19.41538 -99.51122 21897 ft 351 kts 251°
2026-04-22 04:32 19.40658 -99.53556 22347 ft 354 kts 251°
2026-04-22 04:32 19.39775 -99.55997 22535 ft 355 kts 251°
2026-04-22 04:32 19.38922 -99.58455 22530 ft 353 kts 255°
2026-04-22 04:33 19.38315 -99.60989 22527 ft 352 kts 262°
2026-04-22 04:33 19.38006 -99.63587 22631 ft 360 kts 268°
2026-04-22 04:33 19.37837 -99.66257 22928 ft 372 kts 268°
2026-04-22 04:33 19.37682 -99.69039 23462 ft 377 kts 268°
2026-04-22 04:34 19.37525 -99.71797 24062 ft 379 kts 268°
2026-04-22 04:34 19.37359 -99.74603 24447 ft 382 kts 268°
2026-04-22 04:34 19.37186 -99.77388 24535 ft 382 kts 268°
2026-04-22 04:34 19.37017 -99.80109 24550 ft 380 kts 268°
2026-04-22 04:35 19.36844 -99.82890 24577 ft 382 kts 268°
2026-04-22 04:35 19.36667 -99.85707 24924 ft 388 kts 268°
2026-04-22 04:35 19.36487 -99.88584 25632 ft 387 kts 268°
2026-04-22 04:35 19.36309 -99.91391 26263 ft 389 kts 267°
2026-04-22 04:36 19.36126 -99.94272 26847 ft 391 kts 268°
2026-04-22 04:36 19.35943 -99.97148 27411 ft 393 kts 268°
2026-04-22 04:36 19.35759 -100.00045 27921 ft 396 kts 268°
2026-04-22 04:36 19.35574 -100.02956 28419 ft 399 kts 267°
2026-04-22 04:37 19.35386 -100.05890 28884 ft 402 kts 267°
2026-04-22 04:37 19.35207 -100.08860 29334 ft 404 kts 269°
2026-04-22 04:37 19.35258 -100.11825 29530 ft 405 kts 275°
2026-04-22 04:38 19.36354 -100.17690 29760 ft 409 kts 288°
2026-04-22 04:38 19.37269 -100.20530 30190 ft 411 kts 289°
2026-04-22 04:38 19.38238 -100.23434 30340 ft 420 kts 289°
2026-04-22 04:38 19.39220 -100.26369 30487 ft 427 kts 289°
2026-04-22 04:39 19.40191 -100.29285 30624 ft 435 kts 289°
2026-04-22 04:39 19.41193 -100.32306 30782 ft 441 kts 289°
2026-04-22 04:39 19.42213 -100.35390 31030 ft 444 kts 289°
2026-04-22 04:39 19.43241 -100.38504 31318 ft 446 kts 289°
2026-04-22 04:40 19.44266 -100.41614 31593 ft 447 kts 289°
2026-04-22 04:40 19.45290 -100.44722 31933 ft 447 kts 288°
2026-04-22 04:40 19.46312 -100.47827 32314 ft 445 kts 288°
2026-04-22 04:40 19.47325 -100.50913 32679 ft 444 kts 288°
2026-04-22 04:41 19.48332 -100.53979 33019 ft 443 kts 288°
2026-04-22 04:41 19.49347 -100.57074 33389 ft 442 kts 288°
2026-04-22 04:41 19.50351 -100.60141 33762 ft 441 kts 288°
2026-04-22 04:41 19.51350 -100.63192 34134 ft 439 kts 288°
2026-04-22 04:42 19.52355 -100.66269 34490 ft 439 kts 287°
2026-04-22 04:42 19.53339 -100.69276 34846 ft 438 kts 287°
2026-04-22 04:42 19.54345 -100.72349 35213 ft 436 kts 287°
2026-04-22 04:42 19.55342 -100.75339 35564 ft 435 kts 288°
2026-04-22 04:43 19.56387 -100.78393 35926 ft 433 kts 288°
2026-04-22 04:43 19.57415 -100.81389 36248 ft 432 kts 288°
2026-04-22 04:43 19.58437 -100.84370 36554 ft 431 kts 288°
2026-04-22 04:43 19.59464 -100.87373 36802 ft 431 kts 288°
2026-04-22 04:44 19.60478 -100.90350 36987 ft 432 kts 288°
2026-04-22 04:44 19.61509 -100.93378 37163 ft 434 kts 288°
2026-04-22 04:44 19.62532 -100.96387 37335 ft 434 kts 288°
2026-04-22 04:44 19.63550 -100.99380 37513 ft 435 kts 288°
2026-04-22 04:45 19.64572 -101.02392 37674 ft 436 kts 288°
2026-04-22 04:45 19.65603 -101.05424 37818 ft 437 kts 287°
2026-04-22 04:45 19.66647 -101.08504 37959 ft 437 kts 288°
2026-04-22 04:45 19.67677 -101.11545 38082 ft 438 kts 287°
2026-04-22 04:46 19.68711 -101.14600 38201 ft 439 kts 287°
2026-04-22 04:46 19.69741 -101.17644 38310 ft 440 kts 287°
2026-04-22 04:46 19.70782 -101.20721 38402 ft 442 kts 287°
2026-04-22 04:47 19.72861 -101.26873 38438 ft 442 kts 287°
2026-04-22 04:47 19.74931 -101.33007 38457 ft 442 kts 287°
2026-04-22 04:48 19.77015 -101.39190 38479 ft 442 kts 287°
2026-04-22 04:48 19.79065 -101.45278 38501 ft 440 kts 287°
2026-04-22 04:49 19.81124 -101.51403 38512 ft 440 kts 287°
2026-04-22 04:49 19.83176 -101.57518 38492 ft 441 kts 287°
2026-04-22 04:50 19.85226 -101.63633 38464 ft 441 kts 287°
2026-04-22 04:50 19.87286 -101.69781 38432 ft 442 kts 287°
2026-04-22 04:51 19.89342 -101.75928 38424 ft 442 kts 286°
2026-04-22 04:51 19.91396 -101.82079 38410 ft 441 kts 287°
2026-04-22 04:52 19.93444 -101.88222 38402 ft 442 kts 286°
2026-04-22 04:52 19.95498 -101.94385 38411 ft 443 kts 286°
2026-04-22 04:53 19.97553 -102.00559 38416 ft 443 kts 286°
2026-04-22 04:53 19.99588 -102.06686 38411 ft 442 kts 286°
2026-04-22 04:54 20.01643 -102.12878 38408 ft 441 kts 286°
2026-04-22 04:54 20.03678 -102.19023 38400 ft 441 kts 286°
2026-04-22 04:55 20.05707 -102.25152 38395 ft 441 kts 286°
2026-04-22 04:55 20.07740 -102.31305 38392 ft 440 kts 286°
2026-04-22 04:56 20.09762 -102.37431 38391 ft 439 kts 287°
2026-04-22 04:56 20.11780 -102.43553 38390 ft 439 kts 287°
2026-04-22 04:57 20.13798 -102.49682 38389 ft 439 kts 286°
2026-04-22 04:57 20.15810 -102.55812 38385 ft 437 kts 287°
2026-04-22 04:58 20.17815 -102.61921 38383 ft 438 kts 287°
2026-04-22 04:58 20.19958 -102.67984 38379 ft 439 kts 290°
2026-04-22 04:59 20.22649 -102.73808 38380 ft 441 kts 295°
2026-04-22 04:59 20.25626 -102.79530 38373 ft 440 kts 296°
2026-04-22 05:00 20.28579 -102.85193 38372 ft 440 kts 296°
2026-04-22 05:00 20.31548 -102.90900 38369 ft 439 kts 296°
2026-04-22 05:01 20.34504 -102.96596 38370 ft 439 kts 296°
2026-04-22 05:01 20.37455 -103.02296 38367 ft 438 kts 296°
2026-04-22 05:02 20.40409 -103.07999 38364 ft 437 kts 296°
2026-04-22 05:02 20.43335 -103.13659 38358 ft 437 kts 296°
2026-04-22 05:03 20.46256 -103.19316 38340 ft 437 kts 295°
2026-04-22 05:03 20.49205 -103.24990 38335 ft 438 kts 297°
2026-04-22 05:04 20.52545 -103.30434 38316 ft 440 kts 302°
2026-04-22 05:04 20.56408 -103.35499 38318 ft 443 kts 308°
2026-04-22 05:05 20.60681 -103.40248 38330 ft 444 kts 310°
2026-04-22 05:05 20.65025 -103.44985 38334 ft 443 kts 310°
2026-04-22 05:06 20.69325 -103.49684 38340 ft 443 kts 310°
2026-04-22 05:06 20.73616 -103.54383 38347 ft 443 kts 310°
2026-04-22 05:07 20.77928 -103.59113 38346 ft 443 kts 310°
2026-04-22 05:07 20.82235 -103.63841 38337 ft 443 kts 310°
2026-04-22 05:08 20.86527 -103.68555 38334 ft 442 kts 309°
2026-04-22 05:08 20.90808 -103.73257 38337 ft 442 kts 309°
2026-04-22 05:09 20.95110 -103.77988 38341 ft 442 kts 309°
2026-04-22 05:09 20.99397 -103.82709 38333 ft 442 kts 309°
2026-04-22 05:10 21.03669 -103.87421 38337 ft 441 kts 309°
2026-04-22 05:10 21.07957 -103.92156 38317 ft 441 kts 309°
2026-04-22 05:11 21.12225 -103.96870 38293 ft 441 kts 309°
2026-04-22 05:11 21.16485 -104.01578 38275 ft 441 kts 309°
2026-04-22 05:12 21.20790 -104.06341 38263 ft 441 kts 309°
2026-04-22 05:12 21.25054 -104.11063 38251 ft 440 kts 309°
2026-04-22 05:13 21.29177 -104.15878 38259 ft 437 kts 304°
2026-04-22 05:13 21.32710 -104.21150 38286 ft 432 kts 297°
2026-04-22 05:14 21.35546 -104.26782 38293 ft 427 kts 290°
2026-04-22 05:14 21.37707 -104.32680 38291 ft 424 kts 285°
2026-04-22 05:15 21.39670 -104.38657 38270 ft 423 kts 285°
2026-04-22 05:15 21.41636 -104.44655 38247 ft 422 kts 286°
2026-04-22 05:16 21.43592 -104.50623 38220 ft 422 kts 286°
2026-04-22 05:16 21.45548 -104.56592 38203 ft 423 kts 285°
2026-04-22 05:17 21.47498 -104.62551 38205 ft 422 kts 285°
2026-04-22 05:17 21.49445 -104.68512 38212 ft 421 kts 285°
2026-04-22 05:18 21.52358 -104.77439 38223 ft 421 kts 285°
2026-04-22 05:18 21.54291 -104.83374 38237 ft 421 kts 286°
2026-04-22 05:19 21.56223 -104.89316 38232 ft 420 kts 285°
2026-04-22 05:19 21.58149 -104.95245 38217 ft 419 kts 285°
2026-04-22 05:20 21.60070 -105.01166 38195 ft 418 kts 285°
2026-04-22 05:20 21.61982 -105.07068 38147 ft 418 kts 285°
2026-04-22 05:21 21.63881 -105.12948 38103 ft 419 kts 286°
2026-04-22 05:21 21.65792 -105.18861 38072 ft 418 kts 286°
2026-04-22 05:22 21.67702 -105.24784 38052 ft 418 kts 286°
2026-04-22 05:22 21.69603 -105.30684 38042 ft 419 kts 286°
2026-04-22 05:23 21.71500 -105.36581 38036 ft 419 kts 286°
2026-04-22 05:23 21.73392 -105.42474 38036 ft 419 kts 286°
2026-04-22 05:24 21.75299 -105.48431 38036 ft 418 kts 285°
2026-04-22 05:24 21.77039 -105.54371 38036 ft 418 kts 284°
2026-04-22 05:25 21.78741 -105.60331 38034 ft 417 kts 284°
2026-04-22 05:25 21.80463 -105.66338 38034 ft 418 kts 284°
2026-04-22 05:26 21.82174 -105.72297 38031 ft 418 kts 284°
2026-04-22 05:26 21.83890 -105.78278 38026 ft 418 kts 284°
2026-04-22 05:27 21.85593 -105.84220 38027 ft 418 kts 284°
2026-04-22 05:27 21.87299 -105.90177 38041 ft 417 kts 284°
2026-04-22 05:28 21.89009 -105.96168 38054 ft 417 kts 284°
2026-04-22 05:28 21.90709 -106.02123 38041 ft 417 kts 284°
2026-04-22 05:29 21.92401 -106.08066 38040 ft 417 kts 285°
2026-04-22 05:29 21.94092 -106.14005 38035 ft 417 kts 285°
2026-04-22 05:30 21.95790 -106.19986 38034 ft 416 kts 285°
2026-04-22 05:30 21.97482 -106.25952 38038 ft 417 kts 285°
2026-04-22 05:31 21.99170 -106.31912 38038 ft 417 kts 285°
2026-04-22 05:31 22.00864 -106.37902 38033 ft 417 kts 285°
2026-04-22 05:32 22.02545 -106.43860 38036 ft 418 kts 285°
2026-04-22 05:32 22.04237 -106.49863 38037 ft 417 kts 285°
2026-04-22 05:33 22.05916 -106.55831 38036 ft 417 kts 285°
2026-04-22 05:33 22.07627 -106.61819 38035 ft 418 kts 287°
2026-04-22 05:34 22.09647 -106.67650 38038 ft 418 kts 289°
2026-04-22 05:34 22.11735 -106.73502 38035 ft 418 kts 289°
2026-04-22 05:35 22.13824 -106.79356 38035 ft 418 kts 289°
2026-04-22 05:35 22.15905 -106.85209 38037 ft 418 kts 289°
2026-04-22 05:36 22.17988 -106.91075 38036 ft 419 kts 289°
2026-04-22 05:36 22.20075 -106.96955 38036 ft 418 kts 289°
2026-04-22 05:37 22.22150 -107.02812 38037 ft 418 kts 289°
2026-04-22 05:37 22.24224 -107.08672 38039 ft 418 kts 289°
2026-04-22 05:38 22.26297 -107.14538 38041 ft 419 kts 289°
2026-04-22 05:38 22.28364 -107.20393 38039 ft 419 kts 290°
2026-04-22 05:39 22.30438 -107.26280 38041 ft 419 kts 290°
2026-04-22 05:39 22.32499 -107.32134 38039 ft 418 kts 290°
2026-04-22 05:40 22.34556 -107.37986 38041 ft 419 kts 290°
2026-04-22 05:40 22.36616 -107.43855 38039 ft 419 kts 290°
2026-04-22 05:41 22.38675 -107.49729 38038 ft 418 kts 290°
2026-04-22 05:41 22.40742 -107.55630 38044 ft 418 kts 290°
2026-04-22 05:42 22.42785 -107.61475 38034 ft 418 kts 290°
2026-04-22 05:42 22.44852 -107.67391 38045 ft 418 kts 290°
2026-04-22 05:43 22.46895 -107.73253 38040 ft 418 kts 290°
2026-04-22 05:43 22.48955 -107.79167 38042 ft 419 kts 290°
2026-04-22 05:44 22.51003 -107.85058 37693 ft 418 kts 290°
2026-04-22 05:44 22.52020 -107.87985 37264 ft 415 kts 290°
2026-04-22 05:44 22.53016 -107.90853 36714 ft 411 kts 290°
2026-04-22 05:45 22.54008 -107.93710 36105 ft 408 kts 290°
2026-04-22 05:45 22.55010 -107.96601 35402 ft 407 kts 290°
2026-04-22 05:45 22.56006 -107.99475 34688 ft 407 kts 290°
2026-04-22 05:45 22.56991 -108.02316 33973 ft 408 kts 290°
2026-04-22 05:46 22.57993 -108.05212 33235 ft 410 kts 290°
2026-04-22 05:46 22.58991 -108.08099 32512 ft 411 kts 290°
2026-04-22 05:46 22.59992 -108.10996 31749 ft 411 kts 290°
2026-04-22 05:46 22.60981 -108.13862 30968 ft 411 kts 290°
2026-04-22 05:47 22.61981 -108.16759 30332 ft 410 kts 290°
2026-04-22 05:47 22.62982 -108.19661 29845 ft 410 kts 290°
2026-04-22 05:47 22.63973 -108.22533 29336 ft 407 kts 290°
2026-04-22 05:47 22.64961 -108.25398 28799 ft 404 kts 290°
2026-04-22 05:48 22.65942 -108.28245 28262 ft 400 kts 290°
2026-04-22 05:48 22.66912 -108.31066 27740 ft 396 kts 290°
2026-04-22 05:48 22.67862 -108.33827 27201 ft 393 kts 290°
2026-04-22 05:48 22.68809 -108.36584 26646 ft 389 kts 290°
2026-04-22 05:49 22.69746 -108.39316 26096 ft 386 kts 290°
2026-04-22 05:49 22.70682 -108.42046 25551 ft 383 kts 290°
2026-04-22 05:49 22.71612 -108.44759 25005 ft 380 kts 290°
2026-04-22 05:49 22.72532 -108.47444 24470 ft 377 kts 289°
2026-04-22 05:50 22.73426 -108.50059 23959 ft 374 kts 289°
2026-04-22 05:50 22.74337 -108.52719 23435 ft 372 kts 289°
2026-04-22 05:50 22.75223 -108.55308 22921 ft 370 kts 289°
2026-04-22 05:50 22.76121 -108.57932 22404 ft 367 kts 289°
2026-04-22 05:51 22.77005 -108.60519 21897 ft 366 kts 289°
2026-04-22 05:51 22.77884 -108.63095 21358 ft 366 kts 289°
2026-04-22 05:51 22.78759 -108.65659 20819 ft 365 kts 289°
2026-04-22 05:51 22.79641 -108.68247 20260 ft 365 kts 289°
2026-04-22 05:52 22.80522 -108.70834 19708 ft 365 kts 289°
2026-04-22 05:52 22.81400 -108.73411 19171 ft 364 kts 289°
2026-04-22 05:52 22.82268 -108.75963 18604 ft 365 kts 288°
2026-04-22 05:52 22.83150 -108.78555 18046 ft 364 kts 288°
2026-04-22 05:53 22.84020 -108.81119 17510 ft 363 kts 288°
2026-04-22 05:53 22.84891 -108.83683 16975 ft 362 kts 288°
2026-04-22 05:53 22.85756 -108.86231 16454 ft 360 kts 288°
2026-04-22 05:53 22.86622 -108.88780 15934 ft 358 kts 288°
2026-04-22 05:54 22.87492 -108.91344 15407 ft 357 kts 288°
2026-04-22 05:54 22.88355 -108.93890 14880 ft 355 kts 288°
2026-04-22 05:54 22.89195 -108.96369 14374 ft 353 kts 288°
2026-04-22 05:54 22.90045 -108.98879 13873 ft 351 kts 288°
2026-04-22 05:55 22.90889 -109.01375 13371 ft 349 kts 288°
2026-04-22 05:55 22.91722 -109.03836 12867 ft 347 kts 288°
2026-04-22 05:55 22.92554 -109.06299 12370 ft 345 kts 288°
2026-04-22 05:55 22.93388 -109.08765 11897 ft 342 kts 288°
2026-04-22 05:56 22.94199 -109.11165 11392 ft 340 kts 288°
2026-04-22 05:56 22.95013 -109.13577 10901 ft 338 kts 288°
2026-04-22 05:56 22.95813 -109.15942 10530 ft 331 kts 288°
2026-04-22 05:56 22.96586 -109.18234 10356 ft 313 kts 288°
2026-04-22 05:57 22.97318 -109.20402 10200 ft 295 kts 288°
2026-04-22 05:57 22.98000 -109.22424 10039 ft 281 kts 287°
2026-04-22 05:57 22.98659 -109.24385 9871 ft 275 kts 287°
2026-04-22 05:57 22.99315 -109.26348 9492 ft 275 kts 288°
2026-04-22 05:58 22.99952 -109.28309 9139 ft 275 kts 283°
2026-04-22 05:58 23.00281 -109.30347 8803 ft 272 kts 271°
2026-04-22 05:58 23.00236 -109.32393 8439 ft 271 kts 264°
2026-04-22 05:58 23.00087 -109.34412 8080 ft 270 kts 263°
2026-04-22 05:59 22.99925 -109.36446 7715 ft 269 kts 264°
2026-04-22 05:59 22.99768 -109.38477 7373 ft 267 kts 264°
2026-04-22 05:59 22.99615 -109.40488 7031 ft 267 kts 264°
2026-04-22 05:59 22.99448 -109.42742 6639 ft 266 kts 264°
2026-04-22 06:00 22.99302 -109.44743 6283 ft 265 kts 264°
2026-04-22 06:00 22.99155 -109.46755 5942 ft 263 kts 264°
2026-04-22 06:00 22.99013 -109.48686 5681 ft 258 kts 264°
2026-04-22 06:00 22.98870 -109.50626 5410 ft 253 kts 264°
2026-04-22 06:01 22.98732 -109.52515 5137 ft 249 kts 265°
2026-04-22 06:01 22.98596 -109.54365 4855 ft 245 kts 265°
2026-04-22 06:01 22.98463 -109.56203 4589 ft 241 kts 265°
2026-04-22 06:01 22.98334 -109.57987 4346 ft 237 kts 265°
2026-04-22 06:02 22.98200 -109.59781 4095 ft 234 kts 265°
2026-04-22 06:02 22.98068 -109.61525 3857 ft 229 kts 265°
2026-04-22 06:02 22.97911 -109.63210 3733 ft 219 kts 264°
2026-04-22 06:02 22.97747 -109.64863 3649 ft 215 kts 264°
2026-04-22 06:03 22.97584 -109.66504 3549 ft 214 kts 264°
2026-04-22 06:03 22.97499 -109.68107 3431 ft 205 kts 280°
2026-04-22 06:03 22.98110 -109.69433 3300 ft 196 kts 317°
2026-04-22 06:03 22.99291 -109.70150 3165 ft 196 kts 342°
2026-04-22 06:04 23.00632 -109.70454 2956 ft 196 kts 352°
2026-04-22 06:04 23.01984 -109.70602 2736 ft 190 kts 354°
2026-04-22 06:04 23.03291 -109.70722 2403 ft 187 kts 354°
2026-04-22 06:04 23.04542 -109.70852 2161 ft 167 kts 353°
2026-04-22 06:05 23.05635 -109.70976 1982 ft 149 kts 353°
2026-04-22 06:05 23.06631 -109.71093 1749 ft 137 kts 353°
2026-04-22 06:05 23.07574 -109.71204 1582 ft 135 kts 353°
2026-04-22 06:05 23.08517 -109.71312 1396 ft 134 kts 352°
2026-04-22 06:06 23.09447 -109.71419 1210 ft 134 kts 352°
2026-04-22 06:06 23.10369 -109.71525 1033 ft 133 kts 352°
2026-04-22 06:06 23.11309 -109.71632 847 ft 133 kts 352°
2026-04-22 06:06 23.12225 -109.71737 671 ft 132 kts 352°
2026-04-22 06:07 23.13152 -109.71832 496 ft 131 kts 352°
2026-04-22 06:07 23.14069 -109.71941 352 ft 128 kts 351°
2026-04-22 06:07 23.14873 -109.72041 359 ft 97 kts 354°
2026-04-22 06:07 23.15382 -109.72100 372 ft 47 kts 354°
2026-04-22 06:08 23.15648 -109.72131 377 ft 35 kts 352°
2026-04-22 06:08 23.15870 -109.72093 378 ft 31 kts 24°
2026-04-22 06:08 23.16017 -109.72022 374 ft 15 kts 23°
2026-04-22 06:08 23.16031 -109.71954 370 ft 15 kts 160°
2026-04-22 06:09 23.15923 -109.71944 369 ft 16 kts 175°
2026-04-22 06:09 23.15857 -109.71883 366 ft 13 kts 98°
2026-04-22 06:09 23.15773 -109.71843 362 ft 15 kts 172°
2026-04-22 06:09 23.15677 -109.71828 360 ft 8 kts 148°
2026-04-22 06:10 23.15672 -109.71777 357 ft 3 kts 83°
2026-04-22 06:10 23.15673 -109.71764 356 ft 0 kts 84°